Time,TemperatureF,DewpointF,PressureIn,WindDirection,WindDirectionDegrees,WindSpeedMPH,WindSpeedGustMPH,Humidity,HourlyPrecipIn,Conditions,Clouds,dailyrainin,SoftwareType,DateUTC
2013-05-09 00:05:00,54.1,49.7,30.12,North,353,0.0,0.0,85,0.00,,,0.00,Wunderground v.1.15,2013-05-09 07:05:00,
2013-05-09 00:15:00,53.9,49.2,30.12,North,353,0.0,0.0,84,0.00,,,0.00,Wunderground v.1.15,2013-05-09 07:15:00,
2013-05-09 00:25:00,53.7,49.0,30.13,North,353,0.0,0.0,84,0.00,,,0.00,Wunderground v.1.15,2013-05-09 07:25:00,
2013-05-09 00:35:00,53.4,48.4,30.13,North,353,0.0,1.0,83,0.00,,,0.00,Wunderground v.1.15,2013-05-09 07:35:00,
2013-05-09 00:45:00,53.1,48.7,30.13,North,353,0.0,1.0,85,0.00,,,0.00,Wunderground v.1.15,2013-05-09 07:45:00,
2013-05-09 00:55:00,52.8,48.7,30.13,North,353,0.0,1.0,86,0.00,,,0.00,Wunderground v.1.15,2013-05-09 07:55:00,
2013-05-09 01:05:00,52.3,48.9,30.13,North,353,0.0,0.0,88,0.00,,,0.00,Wunderground v.1.15,2013-05-09 08:05:00,
2013-05-09 01:10:00,52.1,48.7,30.13,North,353,0.0,0.0,88,0.00,,,0.00,Wunderground v.1.15,2013-05-09 08:10:00,
2013-05-09 01:15:00,52.0,48.9,30.13,North,353,0.0,0.0,89,0.00,,,0.00,Wunderground v.1.15,2013-05-09 08:15:00,
2013-05-09 01:25:00,51.8,48.7,30.13,North,353,0.0,0.0,89,0.00,,,0.00,Wunderground v.1.15,2013-05-09 08:25:00,
2013-05-09 01:30:00,51.7,48.6,30.14,North,353,0.0,0.0,89,0.00,,,0.00,Wunderground v.1.15,2013-05-09 08:30:00,
2013-05-09 01:40:00,51.6,48.5,30.14,North,353,0.0,0.0,89,0.00,,,0.00,Wunderground v.1.15,2013-05-09 08:40:00,
2013-05-09 01:45:00,51.5,48.4,30.14,North,353,0.0,0.0,89,0.00,,,0.00,Wunderground v.1.15,2013-05-09 08:45:00,
2013-05-09 01:55:00,51.3,48.2,30.14,North,353,0.0,0.0,89,0.00,,,0.00,Wunderground v.1.15,2013-05-09 08:55:00,
2013-05-09 02:05:00,51.1,48.3,30.14,North,353,0.0,0.0,90,0.00,,,0.00,Wunderground v.1.15,2013-05-09 09:05:00,
2013-05-09 02:15:00,50.9,48.1,30.15,North,353,0.0,0.0,90,0.00,,,0.00,Wunderground v.1.15,2013-05-09 09:15:00,
2013-05-09 02:25:00,50.7,47.9,30.15,North,353,0.0,0.0,90,0.00,,,0.00,Wunderground v.1.15,2013-05-09 09:25:00,
2013-05-09 02:35:00,50.8,48.6,30.15,NW,314,0.0,0.0,92,0.00,,,0.00,Wunderground v.1.15,2013-05-09 09:35:00,
2013-05-09 02:45:00,50.9,48.4,30.15,WNW,303,0.0,0.0,91,0.00,,,0.00,Wunderground v.1.15,2013-05-09 09:45:00,
2013-05-09 02:55:00,50.9,48.7,30.15,NW,308,0.0,0.0,92,0.00,,,0.00,Wunderground v.1.15,2013-05-09 09:55:00,
2013-05-09 03:05:00,50.8,48.3,30.15,NW,308,0.0,0.0,91,0.00,,,0.00,Wunderground v.1.15,2013-05-09 10:05:00,
2013-05-09 03:15:00,50.7,48.2,30.16,NW,310,0.0,0.0,91,0.00,,,0.00,Wunderground v.1.15,2013-05-09 10:15:00,
2013-05-09 03:25:00,50.6,48.4,30.16,NNW,330,0.0,0.0,92,0.00,,,0.00,Wunderground v.1.15,2013-05-09 10:25:00,
2013-05-09 03:35:00,50.5,48.3,30.16,NNW,330,0.0,2.0,92,0.00,,,0.00,Wunderground v.1.15,2013-05-09 10:35:00,
2013-05-09 03:45:00,50.4,48.2,30.16,NNW,330,0.0,2.0,92,0.00,,,0.00,Wunderground v.1.15,2013-05-09 10:45:00,
2013-05-09 03:55:00,50.3,47.8,30.16,NNW,330,0.0,2.0,91,0.00,,,0.00,Wunderground v.1.15,2013-05-09 10:55:00,
2013-05-09 04:05:00,50.3,47.8,30.17,NNW,330,0.0,0.0,91,0.00,,,0.00,Wunderground v.1.15,2013-05-09 11:05:00,
2013-05-09 04:15:00,50.1,47.6,30.17,NNW,330,0.0,0.0,91,0.00,,,0.00,Wunderground v.1.15,2013-05-09 11:15:00,
2013-05-09 04:25:00,50.1,47.9,30.17,NNW,330,0.0,0.0,92,0.00,,,0.00,Wunderground v.1.15,2013-05-09 11:25:00,
2013-05-09 04:35:00,50.2,48.0,30.17,NW,309,0.0,1.0,92,0.00,,,0.00,Wunderground v.1.15,2013-05-09 11:35:00,
2013-05-09 04:45:00,50.2,48.0,30.17,NW,308,0.0,1.0,92,0.00,,,0.00,Wunderground v.1.15,2013-05-09 11:45:00,
2013-05-09 04:55:00,50.4,48.5,30.17,NW,312,0.0,1.0,93,0.00,,,0.00,Wunderground v.1.15,2013-05-09 11:55:00,
2013-05-09 05:05:00,50.5,48.6,30.17,NW,312,0.0,0.0,93,0.00,,,0.00,Wunderground v.1.15,2013-05-09 12:05:00,
2013-05-09 05:10:00,50.6,48.7,30.17,NW,312,0.0,0.0,93,0.00,,,0.00,Wunderground v.1.15,2013-05-09 12:10:00,
2013-05-09 05:15:00,50.6,48.7,30.17,NW,310,0.0,0.0,93,0.00,,,0.00,Wunderground v.1.15,2013-05-09 12:15:00,
2013-05-09 05:25:00,50.7,48.5,30.18,NW,308,0.0,0.0,92,0.00,,,0.00,Wunderground v.1.15,2013-05-09 12:25:00,
2013-05-09 05:35:00,50.6,48.4,30.18,NW,312,0.0,0.0,92,0.00,,,0.00,Wunderground v.1.15,2013-05-09 12:35:00,
2013-05-09 05:45:00,50.7,48.5,30.18,NW,306,0.0,0.0,92,0.00,,,0.00,Wunderground v.1.15,2013-05-09 12:45:00,
2013-05-09 05:55:00,50.4,48.2,30.18,NW,305,1.0,1.0,92,0.00,,,0.00,Wunderground v.1.15,2013-05-09 12:55:00,
2013-05-09 06:05:00,50.4,48.2,30.18,NW,318,0.0,1.0,92,0.00,,,0.00,Wunderground v.1.15,2013-05-09 13:05:00,
2013-05-09 06:15:00,50.4,48.2,30.19,NW,308,0.0,0.0,92,0.00,,,0.00,Wunderground v.1.15,2013-05-09 13:15:00,
2013-05-09 06:25:00,50.4,48.2,30.19,WNW,301,0.0,0.0,92,0.00,,,0.00,Wunderground v.1.15,2013-05-09 13:25:00,
2013-05-09 06:35:00,50.4,48.2,30.19,NW,312,0.0,1.0,92,0.00,,,0.00,Wunderground v.1.15,2013-05-09 13:35:00,
2013-05-09 06:45:00,50.2,48.0,30.19,NW,322,0.0,2.0,92,0.00,,,0.00,Wunderground v.1.15,2013-05-09 13:45:00,
2013-05-09 06:50:00,50.3,48.1,30.20,NW,322,0.0,2.0,92,0.00,,,0.00,Wunderground v.1.15,2013-05-09 13:50:00,
2013-05-09 06:55:00,50.3,48.1,30.20,NW,322,0.0,2.0,92,0.00,,,0.00,Wunderground v.1.15,2013-05-09 13:55:00,
2013-05-09 07:05:00,50.5,48.6,30.20,NW,322,0.0,0.0,93,0.00,,,0.00,Wunderground v.1.15,2013-05-09 14:05:00,
2013-05-09 07:10:00,50.6,48.7,30.20,NW,322,0.0,0.0,93,0.00,,,0.00,Wunderground v.1.15,2013-05-09 14:10:00,
2013-05-09 07:15:00,50.6,48.7,30.20,NW,314,0.0,2.0,93,0.00,,,0.00,Wunderground v.1.15,2013-05-09 14:15:00,
2013-05-09 07:25:00,50.5,48.6,30.21,NW,311,0.0,1.0,93,0.00,,,0.00,Wunderground v.1.15,2013-05-09 14:25:00,
2013-05-09 07:30:00,50.3,48.4,30.20,NW,311,1.0,1.0,93,0.00,,,0.00,Wunderground v.1.15,2013-05-09 14:30:00,
2013-05-09 07:35:00,50.4,48.7,30.21,NW,311,0.0,4.0,94,0.00,,,0.00,Wunderground v.1.15,2013-05-09 14:35:00,
2013-05-09 07:45:00,50.3,48.6,30.21,NW,311,0.0,4.0,94,0.00,,,0.00,Wunderground v.1.15,2013-05-09 14:45:00,
2013-05-09 07:55:00,50.5,48.8,30.21,NW,310,0.0,4.0,94,0.00,,,0.00,Wunderground v.1.15,2013-05-09 14:55:00,
2013-05-09 08:00:00,50.6,48.9,30.20,NW,310,0.0,0.0,94,0.00,,,0.00,Wunderground v.1.15,2013-05-09 15:00:00,
2013-05-09 08:10:00,51.0,49.6,30.21,North,353,0.0,0.0,95,0.00,,,0.00,Wunderground v.1.15,2013-05-09 15:10:00,
2013-05-09 08:15:00,51.1,49.4,30.21,North,356,0.0,0.0,94,0.00,,,0.00,Wunderground v.1.15,2013-05-09 15:15:00,
2013-05-09 08:25:00,51.2,49.5,30.20,North,356,0.0,0.0,94,0.00,,,0.00,Wunderground v.1.15,2013-05-09 15:25:00,
2013-05-09 08:35:00,51.4,49.7,30.20,North,356,0.0,3.0,94,0.00,,,0.00,Wunderground v.1.15,2013-05-09 15:35:00,
2013-05-09 08:45:00,51.5,49.8,30.20,North,357,0.0,3.0,94,0.00,,,0.00,Wunderground v.1.15,2013-05-09 15:45:00,
2013-05-09 08:55:00,51.7,50.0,30.20,North,356,0.0,3.0,94,0.00,,,0.00,Wunderground v.1.15,2013-05-09 15:55:00,
2013-05-09 09:05:00,52.0,50.0,30.20,ESE,115,0.0,0.0,93,0.00,,,0.00,Wunderground v.1.15,2013-05-09 16:05:00,
2013-05-09 09:15:00,52.3,50.0,30.20,ESE,102,0.0,0.0,92,0.00,,,0.00,Wunderground v.1.15,2013-05-09 16:15:00,
2013-05-09 09:25:00,52.7,50.1,30.20,East,90,0.0,0.0,91,0.00,,,0.00,Wunderground v.1.15,2013-05-09 16:25:00,
2013-05-09 09:35:00,52.9,50.0,30.19,East,90,0.0,0.0,90,0.00,,,0.00,Wunderground v.1.15,2013-05-09 16:35:00,
2013-05-09 09:45:00,53.2,50.0,30.19,NNE,14,0.0,0.0,89,0.00,,,0.00,Wunderground v.1.15,2013-05-09 16:45:00,
2013-05-09 09:55:00,53.6,50.1,30.19,NNE,20,0.0,0.0,88,0.00,,,0.00,Wunderground v.1.15,2013-05-09 16:55:00,
2013-05-09 10:05:00,53.9,50.1,30.19,SSW,192,0.0,0.0,87,0.00,,,0.00,Wunderground v.1.15,2013-05-09 17:05:00,
2013-05-09 10:10:00,54.1,50.3,30.20,West,265,0.0,0.0,87,0.00,,,0.00,Wunderground v.1.15,2013-05-09 17:10:00,
2013-05-09 10:15:00,54.2,50.1,30.20,WNW,296,0.0,0.0,86,0.00,,,0.00,Wunderground v.1.15,2013-05-09 17:15:00,
2013-05-09 10:25:00,54.3,50.2,30.20,SE,140,0.0,0.0,86,0.00,,,0.00,Wunderground v.1.15,2013-05-09 17:25:00,
2013-05-09 10:30:00,54.5,50.4,30.19,SE,140,0.0,0.0,86,0.00,,,0.00,Wunderground v.1.15,2013-05-09 17:30:00,
2013-05-09 10:35:00,54.6,50.5,30.20,NW,314,0.0,2.0,86,0.00,,,0.00,Wunderground v.1.15,2013-05-09 17:35:00,
2013-05-09 10:45:00,54.2,50.4,30.20,NW,304,0.0,0.0,87,0.00,,,0.00,Wunderground v.1.15,2013-05-09 17:45:00,
2013-05-09 10:55:00,54.2,50.4,30.20,North,9,0.0,0.0,87,0.00,,,0.00,Wunderground v.1.15,2013-05-09 17:55:00,
2013-05-09 11:05:00,54.5,50.7,30.19,NNE,15,0.0,0.0,87,0.00,,,0.00,Wunderground v.1.15,2013-05-09 18:05:00,
2013-05-09 11:15:00,55.0,50.9,30.19,North,10,0.0,0.0,86,0.00,,,0.00,Wunderground v.1.15,2013-05-09 18:15:00,
2013-05-09 11:20:00,55.0,50.9,30.19,North,10,0.0,0.0,86,0.00,,,0.00,Wunderground v.1.15,2013-05-09 18:20:00,
2013-05-09 11:25:00,55.2,50.8,30.19,NW,316,0.0,0.0,85,0.00,,,0.00,Wunderground v.1.15,2013-05-09 18:25:00,
2013-05-09 11:35:00,55.5,51.1,30.20,NE,39,0.0,1.0,85,0.00,,,0.00,Wunderground v.1.15,2013-05-09 18:35:00,
2013-05-09 11:45:00,56.1,51.0,30.20,WNW,303,0.0,1.0,83,0.00,,,0.00,Wunderground v.1.15,2013-05-09 18:45:00,
2013-05-09 11:55:00,56.4,51.0,30.19,SSE,156,0.0,1.0,82,0.00,,,0.00,Wunderground v.1.15,2013-05-09 18:55:00,
2013-05-09 12:00:00,56.8,51.0,30.20,South,175,0.0,0.0,81,0.00,,,0.00,Wunderground v.1.15,2013-05-09 19:00:00,
2013-05-09 12:10:00,57.2,51.1,30.20,South,175,0.0,0.0,80,0.00,,,0.00,Wunderground v.1.15,2013-05-09 19:10:00,
2013-05-09 12:15:00,57.5,51.4,30.19,NW,316,0.0,0.0,80,0.00,,,0.00,Wunderground v.1.15,2013-05-09 19:15:00,
2013-05-09 12:25:00,57.8,51.3,30.19,North,11,0.0,1.0,79,0.00,,,0.00,Wunderground v.1.15,2013-05-09 19:25:00,
2013-05-09 12:35:00,57.7,51.6,30.19,NNE,27,0.0,2.0,80,0.00,,,0.00,Wunderground v.1.15,2013-05-09 19:35:00,
2013-05-09 12:45:00,58.2,51.7,30.19,SSE,158,0.0,2.0,79,0.00,,,0.00,Wunderground v.1.15,2013-05-09 19:45:00,
2013-05-09 12:55:00,58.7,51.9,30.18,ESE,108,0.0,2.0,78,0.00,,,0.00,Wunderground v.1.15,2013-05-09 19:55:00,
2013-05-09 13:05:00,60.2,52.6,30.18,NNW,347,0.0,0.0,76,0.00,,,0.00,Wunderground v.1.15,2013-05-09 20:05:00,
2013-05-09 13:10:00,61.3,52.9,30.18,SE,135,0.0,1.0,74,0.00,,,0.00,Wunderground v.1.15,2013-05-09 20:10:00,
2013-05-09 13:15:00,62.8,53.3,30.18,West,269,0.0,1.0,71,0.00,,,0.00,Wunderground v.1.15,2013-05-09 20:15:00,
2013-05-09 13:25:00,65.1,53.9,30.18,South,191,1.0,3.0,67,0.00,,,0.00,Wunderground v.1.15,2013-05-09 20:25:00,
2013-05-09 13:30:00,66.0,53.9,30.18,SW,218,0.0,0.0,65,0.00,,,0.00,Wunderground v.1.15,2013-05-09 20:30:00,
2013-05-09 13:35:00,67.3,54.3,30.18,SW,218,0.0,3.0,63,0.00,,,0.00,Wunderground v.1.15,2013-05-09 20:35:00,
2013-05-09 13:45:00,68.8,54.3,30.17,SE,131,0.0,3.0,60,0.00,,,0.00,Wunderground v.1.15,2013-05-09 20:45:00,
2013-05-09 13:55:00,69.8,54.4,30.17,ESE,106,0.0,3.0,58,0.00,,,0.00,Wunderground v.1.15,2013-05-09 20:55:00,
2013-05-09 14:05:00,71.0,55.0,30.17,ESE,104,0.0,0.0,57,0.00,,,0.00,Wunderground v.1.15,2013-05-09 21:05:00,
2013-05-09 14:15:00,71.3,54.8,30.17,South,185,0.0,0.0,56,0.00,,,0.00,Wunderground v.1.15,2013-05-09 21:15:00,
2013-05-09 14:25:00,71.6,54.6,30.17,SSE,159,0.0,1.0,55,0.00,,,0.00,Wunderground v.1.15,2013-05-09 21:25:00,
2013-05-09 14:35:00,72.2,54.6,30.16,South,180,0.0,3.0,54,0.00,,,0.00,Wunderground v.1.15,2013-05-09 21:35:00,
2013-05-09 14:45:00,72.6,55.0,30.16,SSE,156,0.0,3.0,54,0.00,,,0.00,Wunderground v.1.15,2013-05-09 21:45:00,
2013-05-09 14:55:00,73.2,55.0,30.16,South,175,0.0,3.0,53,0.00,,,0.00,Wunderground v.1.15,2013-05-09 21:55:00,
2013-05-09 15:05:00,73.6,54.9,30.15,SSE,163,0.0,1.0,52,0.00,,,0.00,Wunderground v.1.15,2013-05-09 22:05:00,
2013-05-09 15:15:00,73.2,54.5,30.15,South,175,0.0,0.0,52,0.00,,,0.00,Wunderground v.1.15,2013-05-09 22:15:00,
2013-05-09 15:25:00,73.7,55.0,30.15,ESE,104,0.0,0.0,52,0.00,,,0.00,Wunderground v.1.15,2013-05-09 22:25:00,
2013-05-09 15:35:00,74.0,55.3,30.14,SSE,165,0.0,2.0,52,0.00,,,0.00,Wunderground v.1.15,2013-05-09 22:35:00,
2013-05-09 15:45:00,73.4,54.2,30.14,NNE,25,0.0,2.0,51,0.00,,,0.00,Wunderground v.1.15,2013-05-09 22:45:00,
2013-05-09 15:55:00,71.3,54.3,30.14,NNE,14,0.0,2.0,55,0.00,,,0.00,Wunderground v.1.15,2013-05-09 22:55:00,
2013-05-09 16:05:00,70.0,54.1,30.13,NE,48,0.0,0.0,57,0.00,,,0.00,Wunderground v.1.15,2013-05-09 23:05:00,
2013-05-09 16:10:00,69.5,52.6,30.13,North,349,0.0,0.0,55,0.00,,,0.00,Wunderground v.1.15,2013-05-09 23:10:00,
2013-05-09 16:15:00,69.3,52.9,30.13,NNW,331,1.0,1.0,56,0.00,,,0.00,Wunderground v.1.15,2013-05-09 23:15:00,
2013-05-09 16:25:00,68.9,52.6,30.13,NNE,22,0.0,1.0,56,0.00,,,0.00,Wunderground v.1.15,2013-05-09 23:25:00,
2013-05-09 16:35:00,68.6,51.8,30.13,NW,310,0.0,2.0,55,0.00,,,0.00,Wunderground v.1.15,2013-05-09 23:35:00,
2013-05-09 16:45:00,68.5,51.2,30.12,NNE,14,0.0,2.0,54,0.00,,,0.00,Wunderground v.1.15,2013-05-09 23:45:00,
2013-05-09 16:55:00,68.1,48.8,30.12,North,10,0.0,2.0,50,0.00,,,0.00,Wunderground v.1.15,2013-05-09 23:55:00,
2013-05-09 17:05:00,68.1,48.8,30.12,NW,306,0.0,4.0,50,0.00,,,0.00,Wunderground v.1.15,2013-05-10 00:05:00,
2013-05-09 17:15:00,68.3,51.0,30.12,NNE,27,0.0,0.0,54,0.00,,,0.00,Wunderground v.1.15,2013-05-10 00:15:00,
2013-05-09 17:25:00,68.0,51.7,30.11,NE,52,0.0,0.0,56,0.00,,,0.00,Wunderground v.1.15,2013-05-10 00:25:00,
2013-05-09 17:35:00,67.6,51.3,30.11,NNE,25,0.0,5.0,56,0.00,,,0.00,Wunderground v.1.15,2013-05-10 00:35:00,
2013-05-09 17:45:00,67.8,50.5,30.11,NW,317,1.0,5.0,54,0.00,,,0.00,Wunderground v.1.15,2013-05-10 00:45:00,
2013-05-09 17:55:00,67.7,49.4,30.11,North,8,1.0,5.0,52,0.00,,,0.00,Wunderground v.1.15,2013-05-10 00:55:00,
2013-05-09 18:05:00,67.2,50.0,30.11,WNW,302,0.0,2.0,54,0.00,,,0.00,Wunderground v.1.15,2013-05-10 01:05:00,
2013-05-09 18:15:00,67.1,51.4,30.10,North,8,1.0,4.0,57,0.00,,,0.00,Wunderground v.1.15,2013-05-10 01:15:00,
2013-05-09 18:25:00,66.7,51.5,30.10,North,8,1.0,1.0,58,0.00,,,0.00,Wunderground v.1.15,2013-05-10 01:25:00,
2013-05-09 18:35:00,66.2,51.4,30.10,North,351,0.0,5.0,59,0.00,,,0.00,Wunderground v.1.15,2013-05-10 01:35:00,
2013-05-09 18:40:00,66.0,51.7,30.10,North,350,0.0,5.0,60,0.00,,,0.00,Wunderground v.1.15,2013-05-10 01:40:00,
2013-05-09 18:45:00,65.8,51.5,30.10,North,10,0.0,5.0,60,0.00,,,0.00,Wunderground v.1.15,2013-05-10 01:45:00,
2013-05-09 18:55:00,65.6,51.3,30.10,NNW,346,0.0,5.0,60,0.00,,,0.00,Wunderground v.1.15,2013-05-10 01:55:00,
2013-05-09 19:05:00,65.2,51.4,30.10,NNW,341,0.0,0.0,61,0.00,,,0.00,Wunderground v.1.15,2013-05-10 02:05:00,
2013-05-09 19:15:00,64.7,51.4,30.10,North,355,0.0,0.0,62,0.00,,,0.00,Wunderground v.1.15,2013-05-10 02:15:00,
2013-05-09 19:25:00,64.0,51.6,30.10,North,354,0.0,1.0,64,0.00,,,0.00,Wunderground v.1.15,2013-05-10 02:25:00,
2013-05-09 19:35:00,63.5,51.5,30.10,NNE,27,0.0,6.0,65,0.00,,,0.00,Wunderground v.1.15,2013-05-10 02:35:00,
2013-05-09 19:45:00,63.1,51.1,30.10,NW,322,0.0,6.0,65,0.00,,,0.00,Wunderground v.1.15,2013-05-10 02:45:00,
2013-05-09 19:50:00,63.0,51.5,30.10,North,8,1.0,1.0,66,0.00,,,0.00,Wunderground v.1.15,2013-05-10 02:50:00,
2013-05-09 19:55:00,62.8,51.3,30.10,NNE,12,1.0,6.0,66,0.00,,,0.00,Wunderground v.1.15,2013-05-10 02:55:00,
2013-05-09 20:05:00,62.3,51.2,30.10,NNE,20,0.0,1.0,67,0.00,,,0.00,Wunderground v.1.15,2013-05-10 03:05:00,
2013-05-09 20:15:00,61.7,51.0,30.10,North,8,0.0,0.0,68,0.00,,,0.00,Wunderground v.1.15,2013-05-10 03:15:00,
2013-05-09 20:25:00,61.1,50.8,30.10,North,10,0.0,0.0,69,0.00,,,0.00,Wunderground v.1.15,2013-05-10 03:25:00,
2013-05-09 20:30:00,60.9,50.7,30.10,North,359,0.0,0.0,69,0.00,,,0.00,Wunderground v.1.15,2013-05-10 03:30:00,
2013-05-09 20:35:00,60.6,50.4,30.10,North,3,0.0,7.0,69,0.00,,,0.00,Wunderground v.1.15,2013-05-10 03:35:00,
2013-05-09 20:45:00,60.3,50.1,30.10,North,2,1.0,7.0,69,0.00,,,0.00,Wunderground v.1.15,2013-05-10 03:45:00,
2013-05-09 20:55:00,60.0,50.2,30.11,North,353,0.0,7.0,70,0.00,,,0.00,Wunderground v.1.15,2013-05-10 03:55:00,
2013-05-09 21:05:00,59.4,49.6,30.11,North,355,0.0,0.0,70,0.00,,,0.00,Wunderground v.1.15,2013-05-10 04:05:00,
2013-05-09 21:10:00,59.2,49.4,30.11,North,355,0.0,0.0,70,0.00,,,0.00,Wunderground v.1.15,2013-05-10 04:10:00,
2013-05-09 21:15:00,59.0,49.6,30.11,North,4,0.0,0.0,71,0.00,,,0.00,Wunderground v.1.15,2013-05-10 04:15:00,
2013-05-09 21:20:00,58.9,50.3,30.11,North,4,0.0,0.0,73,0.00,,,0.00,Wunderground v.1.15,2013-05-10 04:20:00,
2013-05-09 21:25:00,58.6,50.3,30.12,North,4,0.0,0.0,74,0.00,,,0.00,Wunderground v.1.15,2013-05-10 04:25:00,
2013-05-09 21:35:00,58.2,50.7,30.12,NNE,13,0.0,5.0,76,0.00,,,0.00,Wunderground v.1.15,2013-05-10 04:35:00,
2013-05-09 21:45:00,57.8,50.6,30.12,NNE,17,0.0,5.0,77,0.00,,,0.00,Wunderground v.1.15,2013-05-10 04:45:00,
2013-05-09 21:55:00,57.3,50.8,30.12,North,7,0.0,5.0,79,0.00,,,0.00,Wunderground v.1.15,2013-05-10 04:55:00,
2013-05-09 22:05:00,56.9,50.8,30.12,NNE,17,0.0,0.0,80,0.00,,,0.00,Wunderground v.1.15,2013-05-10 05:05:00,
2013-05-09 22:15:00,56.5,51.1,30.12,NNE,21,0.0,0.0,82,0.00,,,0.00,Wunderground v.1.15,2013-05-10 05:15:00,
2013-05-09 22:25:00,56.2,50.8,30.12,NNE,22,0.0,0.0,82,0.00,,,0.00,Wunderground v.1.15,2013-05-10 05:25:00,
2013-05-09 22:35:00,55.9,50.8,30.12,NNE,23,0.0,1.0,83,0.00,,,0.00,Wunderground v.1.15,2013-05-10 05:35:00,
2013-05-09 22:45:00,55.8,50.7,30.13,NNE,23,0.0,1.0,83,0.00,,,0.00,Wunderground v.1.15,2013-05-10 05:45:00,
2013-05-09 22:55:00,55.6,50.5,30.13,NNE,23,0.0,1.0,83,0.00,,,0.00,Wunderground v.1.15,2013-05-10 05:55:00,
2013-05-09 23:05:00,55.3,50.5,30.13,NNE,22,0.0,0.0,84,0.00,,,0.00,Wunderground v.1.15,2013-05-10 06:05:00,
2013-05-09 23:15:00,55.0,50.3,30.13,NNE,22,0.0,0.0,84,0.00,,,0.00,Wunderground v.1.15,2013-05-10 06:15:00,
2013-05-09 23:20:00,54.9,50.2,30.13,NNE,22,0.0,0.0,84,0.00,,,0.00,Wunderground v.1.15,2013-05-10 06:20:00,
2013-05-09 23:25:00,54.8,50.1,30.13,NNE,14,0.0,0.0,84,0.00,,,0.00,Wunderground v.1.15,2013-05-10 06:25:00,
2013-05-09 23:35:00,54.8,49.7,30.13,North,10,0.0,1.0,83,0.00,,,0.00,Wunderground v.1.15,2013-05-10 06:35:00,
2013-05-09 23:45:00,54.8,49.4,30.14,North,355,0.0,1.0,82,0.00,,,0.00,Wunderground v.1.15,2013-05-10 06:45:00,
2013-05-09 23:55:00,54.8,49.4,30.14,ENE,59,0.0,1.0,82,0.00,,,0.00,Wunderground v.1.15,2013-05-10 06:55:00,